Tracking 25701 objects as of 4-Jul-2022
HD Live streaming from Space Station
objects crossing your sky now

SL-8 DEB *

Track SL-8 DEB * now!
10-day predictions


NORAD ID: 18512
Int'l Code: 1977-119E
Perigee: 652.9 km
Apogee: 656.6 km
Inclination: 74.0 °
Period: 97.7 minutes
Semi major axis: 7025 km
RCS: 0.0059 m2 (small)
Launch date: December 16, 1977
Source: Commonwealth of Independent States (former USSR) (CIS)
Launch site: PLESETSK MISSILE AND SPACE COMPLEX (PKMTR)

Note: This is SATELLITE DEBRIS
aabbcc
Your satellite tracking list
Your tracking list is empty




NASA's NSSDC Master Catalog

Two Line Element Set (TLE):
1 18512U 77119E   22184.48045106  .00001074  00000-0  16758-3 0  9999
2 18512  74.0304 191.1474 0002626  37.9258  85.5035 14.74221335993799
Source of the keplerian elements: AFSPC